Time,TemperatureF,DewpointF,PressureIn,WindDirection,WindDirectionDegrees,WindSpeedMPH,WindSpeedGustMPH,Humidity,HourlyPrecipIn,Conditions,Clouds,dailyrainin,SoftwareType,DateUTC
2013-01-24 00:10:00,-4.1,-9.0,30.12,East,82,1.0,3.0,80,0.00,,,0.00,weatherlink.com 1.10,2013-01-24 05:10:00,
2013-01-24 00:25:00,-4.0,-9.0,30.12,East,82,1.0,2.0,79,0.00,,,0.00,weatherlink.com 1.10,2013-01-24 05:25:00,
2013-01-24 00:40:00,-3.9,-9.0,30.12,East,82,2.0,2.0,80,0.00,,,0.00,weatherlink.com 1.10,2013-01-24 05:40:00,
2013-01-24 00:56:00,-3.9,-9.0,30.12,East,82,0.0,1.0,80,0.00,,,0.00,weatherlink.com 1.10,2013-01-24 05:56:00,
2013-01-24 01:11:00,-3.8,-8.0,30.12,East,82,1.0,2.0,81,0.00,,,0.00,weatherlink.com 1.10,2013-01-24 06:11:00,
2013-01-24 01:26:00,-4.0,-8.0,30.11,East,82,0.0,1.0,81,0.00,,,0.00,weatherlink.com 1.10,2013-01-24 06:26:00,
2013-01-24 01:41:00,-4.1,-9.0,30.11,East,82,0.0,1.0,81,0.00,,,0.00,weatherlink.com 1.10,2013-01-24 06:41:00,
2013-01-24 01:56:00,-4.6,-9.0,30.11,East,82,0.0,1.0,82,0.00,,,0.00,weatherlink.com 1.10,2013-01-24 06:56:00,
2013-01-24 02:11:00,-4.8,-9.0,30.11,East,82,0.0,1.0,82,0.00,,,0.00,weatherlink.com 1.10,2013-01-24 07:11:00,
2013-01-24 02:26:00,-5.1,-9.0,30.11,East,82,0.0,1.0,83,0.00,,,0.00,weatherlink.com 1.10,2013-01-24 07:26:00,
2013-01-24 02:41:00,-5.3,-9.0,30.11,East,82,0.0,1.0,84,0.00,,,0.00,weatherlink.com 1.10,2013-01-24 07:41:00,
2013-01-24 02:56:00,-5.5,-9.0,30.10,East,82,1.0,2.0,84,0.00,,,0.00,weatherlink.com 1.10,2013-01-24 07:56:00,
2013-01-24 03:11:00,-5.4,-9.0,30.10,East,82,0.0,1.0,84,0.00,,,0.00,weatherlink.com 1.10,2013-01-24 08:11:00,
2013-01-24 03:26:00,-5.6,-9.0,30.09,East,82,0.0,1.0,84,0.00,,,0.00,weatherlink.com 1.10,2013-01-24 08:26:00,
2013-01-24 03:41:00,-5.9,-10.0,30.09,East,82,0.0,1.0,84,0.00,,,0.00,weatherlink.com 1.10,2013-01-24 08:41:00,
2013-01-24 03:56:00,-6.1,-9.0,30.09,East,82,0.0,0.0,85,0.00,,,0.00,weatherlink.com 1.10,2013-01-24 08:56:00,
2013-01-24 04:11:00,-6.2,-10.0,30.10,East,82,0.0,1.0,85,0.00,,,0.00,weatherlink.com 1.10,2013-01-24 09:11:00,
2013-01-24 04:27:00,-6.3,-10.0,30.10,East,82,0.0,1.0,85,0.00,,,0.00,weatherlink.com 1.10,2013-01-24 09:27:00,
2013-01-24 04:42:00,-6.2,-10.0,30.11,East,82,0.0,1.0,85,0.00,,,0.00,weatherlink.com 1.10,2013-01-24 09:42:00,
2013-01-24 04:57:00,-6.2,-9.0,30.11,East,82,0.0,1.0,86,0.00,,,0.00,weatherlink.com 1.10,2013-01-24 09:57:00,
2013-01-24 05:12:00,-6.3,-9.0,30.12,East,82,0.0,1.0,86,0.00,,,0.00,weatherlink.com 1.10,2013-01-24 10:12:00,
2013-01-24 05:27:00,-6.4,-10.0,30.12,East,82,0.0,1.0,86,0.00,,,0.00,weatherlink.com 1.10,2013-01-24 10:27:00,
2013-01-24 05:42:00,-6.0,-9.0,30.12,East,82,0.0,1.0,87,0.00,,,0.00,weatherlink.com 1.10,2013-01-24 10:42:00,
2013-01-24 05:57:00,-4.3,-7.0,30.13,NE,38,1.0,2.0,88,0.00,,,0.00,weatherlink.com 1.10,2013-01-24 10:57:00,
2013-01-24 06:12:00,-2.5,-6.0,30.14,NNW,328,3.0,7.0,85,0.00,,,0.00,weatherlink.com 1.10,2013-01-24 11:12:00,
2013-01-24 06:27:00,-2.5,-6.0,30.14,NNW,337,5.0,7.0,84,0.00,,,0.00,weatherlink.com 1.10,2013-01-24 11:27:00,
2013-01-24 06:42:00,-2.8,-7.0,30.14,NNW,329,3.0,8.0,84,0.00,,,0.00,weatherlink.com 1.10,2013-01-24 11:42:00,
2013-01-24 06:57:00,-2.9,-7.0,30.15,NW,321,4.0,8.0,84,0.00,,,0.00,weatherlink.com 1.10,2013-01-24 11:57:00,
2013-01-24 07:12:00,-999.0,-99.9,30.15,North,-999,-999.0,-999.0,-999,0.00,,,0.00,weatherlink.com 1.10,2013-01-24 12:12:00,
2013-01-24 07:27:00,-999.0,-99.9,30.16,North,-999,-999.0,-999.0,-999,0.00,,,0.00,weatherlink.com 1.10,2013-01-24 12:27:00,
2013-01-24 07:42:00,-999.0,-99.9,30.16,North,-999,-999.0,-999.0,-999,0.00,,,0.00,weatherlink.com 1.10,2013-01-24 12:42:00,
2013-01-24 07:58:00,-999.0,-99.9,30.16,North,-999,-999.0,-999.0,-999,0.00,,,0.00,weatherlink.com 1.10,2013-01-24 12:58:00,
2013-01-24 08:13:00,-3.4,-7.0,30.17,ENE,61,4.0,7.0,86,0.00,,,0.00,weatherlink.com 1.10,2013-01-24 13:13:00,
2013-01-24 08:28:00,-2.6,-6.0,30.18,NNW,333,5.0,10.0,84,0.00,,,0.00,weatherlink.com 1.10,2013-01-24 13:28:00,
2013-01-24 08:43:00,-2.5,-6.0,30.18,North,350,4.0,11.0,84,0.00,,,0.00,weatherlink.com 1.10,2013-01-24 13:43:00,
2013-01-24 08:58:00,-1.9,-6.0,30.18,NNW,334,5.0,9.0,84,0.00,,,0.00,weatherlink.com 1.10,2013-01-24 13:58:00,
2013-01-24 09:13:00,-0.6,-5.0,30.18,NNE,32,4.0,11.0,83,0.00,,,0.00,weatherlink.com 1.10,2013-01-24 14:13:00,
2013-01-24 09:28:00,0.8,-4.0,30.19,NNW,347,3.0,12.0,81,0.00,,,0.00,weatherlink.com 1.10,2013-01-24 14:28:00,
2013-01-24 09:43:00,2.0,-3.0,30.19,North,350,6.0,12.0,79,0.00,,,0.00,weatherlink.com 1.10,2013-01-24 14:43:00,
2013-01-24 09:58:00,3.1,-3.0,30.20,NW,326,3.0,15.0,75,0.00,,,0.00,weatherlink.com 1.10,2013-01-24 14:58:00,
2013-01-24 10:13:00,3.6,-3.0,30.20,NW,323,6.0,15.0,74,0.00,,,0.00,weatherlink.com 1.10,2013-01-24 15:13:00,
2013-01-24 10:28:00,4.5,-2.0,30.20,North,355,11.0,15.0,73,0.00,,,0.00,weatherlink.com 1.10,2013-01-24 15:28:00,
2013-01-24 10:43:00,4.7,-3.0,30.20,NW,319,7.0,18.0,70,0.00,,,0.00,weatherlink.com 1.10,2013-01-24 15:43:00,
2013-01-24 10:58:00,4.5,-3.0,30.20,WNW,299,10.0,19.0,70,0.00,,,0.00,weatherlink.com 1.10,2013-01-24 15:58:00,
2013-01-24 11:14:00,5.1,-3.0,30.20,North,355,6.0,23.0,68,0.00,,,0.00,weatherlink.com 1.10,2013-01-24 16:14:00,
2013-01-24 11:29:00,5.6,-4.0,30.20,NNE,26,4.0,21.0,66,0.00,,,0.00,weatherlink.com 1.10,2013-01-24 16:29:00,
2013-01-24 11:44:00,5.6,-4.0,30.20,NNW,336,8.0,24.0,65,0.00,,,0.00,weatherlink.com 1.10,2013-01-24 16:44:00,
2013-01-24 11:59:00,6.2,-4.0,30.20,East,92,5.0,21.0,62,0.00,,,0.00,weatherlink.com 1.10,2013-01-24 16:59:00,
2013-01-24 12:14:00,6.3,-4.0,30.20,North,350,10.0,28.0,62,0.00,,,0.00,weatherlink.com 1.10,2013-01-24 17:14:00,
2013-01-24 12:29:00,7.1,-4.0,30.20,NW,313,11.0,25.0,60,0.00,,,0.00,weatherlink.com 1.10,2013-01-24 17:29:00,
2013-01-24 12:44:00,7.2,-5.0,30.20,NNW,348,22.0,24.0,58,0.00,,,0.00,weatherlink.com 1.10,2013-01-24 17:44:00,
2013-01-24 12:59:00,6.9,-6.0,30.19,NNW,343,14.0,30.0,57,0.00,,,0.00,weatherlink.com 1.10,2013-01-24 17:59:00,
2013-01-24 13:14:00,7.7,-5.0,30.20,NNE,13,6.0,19.0,57,0.00,,,0.00,weatherlink.com 1.10,2013-01-24 18:14:00,
2013-01-24 13:29:00,7.8,-5.0,30.20,NE,39,7.0,20.0,55,0.00,,,0.00,weatherlink.com 1.10,2013-01-24 18:29:00,
2013-01-24 13:45:00,7.6,-6.0,30.21,North,355,11.0,32.0,55,0.00,,,0.00,weatherlink.com 1.10,2013-01-24 18:45:00,
2013-01-24 13:59:00,7.7,-7.0,30.21,NNW,340,15.0,26.0,52,0.00,,,0.00,weatherlink.com 1.10,2013-01-24 18:59:00,
2013-01-24 14:14:00,7.9,-6.0,30.21,NNE,15,6.0,20.0,53,0.00,,,0.00,weatherlink.com 1.10,2013-01-24 19:14:00,
2013-01-24 14:29:00,7.5,-7.0,30.22,North,360,14.0,25.0,52,0.00,,,0.00,weatherlink.com 1.10,2013-01-24 19:29:00,
2013-01-24 14:45:00,7.5,-7.0,30.23,NW,309,5.0,26.0,51,0.00,,,0.00,weatherlink.com 1.10,2013-01-24 19:45:00,
2013-01-24 15:00:00,7.7,-7.0,30.23,WSW,248,6.0,19.0,52,0.00,,,0.00,weatherlink.com 1.10,2013-01-24 20:00:00,
2013-01-24 15:15:00,6.8,-9.0,30.23,NNW,340,2.0,24.0,49,0.00,,,0.00,weatherlink.com 1.10,2013-01-24 20:15:00,
2013-01-24 15:30:00,6.9,-8.0,30.23,NNW,340,15.0,18.0,50,0.00,,,0.00,weatherlink.com 1.10,2013-01-24 20:30:00,
2013-01-24 15:45:00,6.5,-8.0,30.23,ENE,74,4.0,24.0,52,0.00,,,0.00,weatherlink.com 1.10,2013-01-24 20:45:00,
2013-01-24 16:00:00,6.2,-7.0,30.23,NE,55,5.0,22.0,54,0.00,,,0.00,weatherlink.com 1.10,2013-01-24 21:00:00,
2013-01-24 16:15:00,5.0,-8.0,30.23,North,10,9.0,31.0,56,0.00,,,0.00,weatherlink.com 1.10,2013-01-24 21:15:00,
2013-01-24 16:30:00,4.7,-8.0,30.23,NNW,336,14.0,27.0,57,0.00,,,0.00,weatherlink.com 1.10,2013-01-24 21:30:00,
2013-01-24 16:45:00,4.4,-8.0,30.24,NW,321,12.0,28.0,58,0.00,,,0.00,weatherlink.com 1.10,2013-01-24 21:45:00,
2013-01-24 17:00:00,4.1,-8.0,30.25,WNW,294,5.0,27.0,58,0.00,,,0.00,weatherlink.com 1.10,2013-01-24 22:00:00,
2013-01-24 17:15:00,4.0,-7.0,30.26,North,355,10.0,27.0,60,0.00,,,0.00,weatherlink.com 1.10,2013-01-24 22:15:00,
2013-01-24 17:30:00,3.4,-6.0,30.27,North,350,13.0,24.0,64,0.00,,,0.00,weatherlink.com 1.10,2013-01-24 22:30:00,
2013-01-24 17:45:00,3.1,-6.0,30.27,North,360,9.0,25.0,65,0.00,,,0.00,weatherlink.com 1.10,2013-01-24 22:45:00,
2013-01-24 18:00:00,2.9,-6.0,30.28,North,360,8.0,24.0,66,0.00,,,0.00,weatherlink.com 1.10,2013-01-24 23:00:00,
2013-01-24 18:16:00,2.9,-6.0,30.29,North,355,6.0,20.0,68,0.00,,,0.00,weatherlink.com 1.10,2013-01-24 23:16:00,
2013-01-24 18:31:00,2.9,-5.0,30.28,NE,39,12.0,24.0,69,0.00,,,0.00,weatherlink.com 1.10,2013-01-24 23:31:00,
2013-01-24 18:46:00,2.9,-4.0,30.28,North,350,15.0,24.0,72,0.00,,,0.00,weatherlink.com 1.10,2013-01-24 23:46:00,
2013-01-24 19:01:00,2.8,-4.0,30.28,North,9,1.0,21.0,73,0.00,,,0.00,weatherlink.com 1.10,2013-01-25 00:01:00,
2013-01-24 19:16:00,2.7,-4.0,30.29,NNE,15,8.0,19.0,75,0.00,,,0.00,weatherlink.com 1.10,2013-01-25 00:16:00,
2013-01-24 19:31:00,2.8,-3.0,30.29,NNW,331,20.0,26.0,76,0.00,,,0.00,weatherlink.com 1.10,2013-01-25 00:31:00,
2013-01-24 19:46:00,2.9,-3.0,30.29,North,5,15.0,31.0,77,0.00,,,0.00,weatherlink.com 1.10,2013-01-25 00:46:00,
2013-01-24 20:01:00,3.1,-2.0,30.29,NNW,336,10.0,26.0,78,0.00,,,0.00,weatherlink.com 1.10,2013-01-25 01:01:00,
2013-01-24 20:16:00,3.2,-2.0,30.28,North,350,9.0,32.0,78,0.00,,,0.00,weatherlink.com 1.10,2013-01-25 01:16:00,
2013-01-24 20:31:00,3.3,-2.0,30.28,NNW,344,10.0,23.0,79,0.00,,,0.00,weatherlink.com 1.10,2013-01-25 01:31:00,
2013-01-24 20:46:00,3.4,-1.0,30.29,WNW,288,5.0,25.0,80,0.00,,,0.00,weatherlink.com 1.10,2013-01-25 01:46:00,
2013-01-24 21:01:00,3.5,-1.0,30.27,NE,46,8.0,23.0,80,0.00,,,0.00,weatherlink.com 1.10,2013-01-25 02:01:00,
2013-01-24 21:16:00,3.7,-1.0,30.28,North,360,14.0,26.0,80,0.00,,,0.00,weatherlink.com 1.10,2013-01-25 02:16:00,
2013-01-24 21:32:00,3.9,-1.0,30.28,North,355,13.0,31.0,81,0.00,,,0.00,weatherlink.com 1.10,2013-01-25 02:32:00,
2013-01-24 21:47:00,4.1,-1.0,30.28,NNW,344,19.0,29.0,80,0.00,,,0.00,weatherlink.com 1.10,2013-01-25 02:47:00,
2013-01-24 22:02:00,4.2,-1.0,30.29,North,5,14.0,22.0,79,0.00,,,0.00,weatherlink.com 1.10,2013-01-25 03:02:00,
2013-01-24 22:17:00,4.2,-1.0,30.28,North,355,13.0,20.0,79,0.00,,,0.00,weatherlink.com 1.10,2013-01-25 03:17:00,
2013-01-24 22:32:00,4.2,-1.0,30.28,NNW,339,19.0,25.0,79,0.00,,,0.00,weatherlink.com 1.10,2013-01-25 03:32:00,
2013-01-24 22:47:00,4.2,-1.0,30.29,NNW,336,16.0,25.0,79,0.00,,,0.00,weatherlink.com 1.10,2013-01-25 03:47:00,
2013-01-24 23:02:00,4.1,-1.0,30.29,North,360,6.0,26.0,79,0.00,,,0.00,weatherlink.com 1.10,2013-01-25 04:02:00,
2013-01-24 23:17:00,4.1,-1.0,30.30,NNW,334,11.0,22.0,79,0.00,,,0.00,weatherlink.com 1.10,2013-01-25 04:17:00,
2013-01-24 23:32:00,3.9,-1.0,30.30,NNW,344,11.0,22.0,80,0.00,,,0.00,weatherlink.com 1.10,2013-01-25 04:32:00,
2013-01-24 23:47:00,3.9,-1.0,30.30,NNW,333,21.0,22.0,80,0.00,,,0.00,weatherlink.com 1.10,2013-01-25 04:47:00,